Weather History for Forest City, IA

Change the Weather History Date:

Monday, March 11, 2013

  Actual Average Record
Temperature  
Mean Temperature 26 °F -  
Max Temperature 30 °F 40 °F 60 °F (2012)
Min Temperature 23 °F 22 °F 23 °F (2013)
Degree Days  
Heating Degree Days 38    
Moisture  
Dew Point 22 °F    
Average Humidity 83    
Maximum Humidity 100    
Minimum Humidity 74    
Precipitation  
Precipitation 0.00 in - - ()
Sea Level Pressure  
Sea Level Pressure 29.77 in    
Wind  
Wind Speed 17 mph (NW)    
Max Wind Speed 23 mph    
Max Gust Speed 28 mph    
Visibility 8 miles    
Events Snow    
Averages and records for this station are not official NWS values.
T = Trace of Precipitation, MM = Missing Value Source: NWS Daily Summary

Daily Weather History Graph

Daily Weather History Graph

Search for Another Location

Airport:

Trip Planner

Search our weather history database for the weather conditions in past years. The results will help you decide how hot, cold, wet, or windy it might be!

Date:

Astronomy

Mar. 11, 2013 Rise Set
Actual Time 7:33 AM CDT 7:16 PM CDT
Civil Twilight 7:04 AM CDT 7:44 PM CDT
Nautical Twilight 6:31 AM CDT 8:17 PM CDT
Astronomical Twilight 5:58 AM CDT 8:51 PM CDT
Moon 7:06 AM CDT (3/11) 7:30 PM CDT (3/11)
Length of Visible Light 12h 39m
Length of Day
11h 43m
Waning Crescent, 0% of the Moon is Illuminated
Mar 11
Waning Crescent
Mar 11
New
Mar 19
First Quarter
Mar 27
Full
Apr 2
Last Quarter

Hourly Weather History & Observations

Time (CDT) Temp. Windchill Dew Point Humidity Pressure Visibility Wind Dir Wind Speed Gust Speed Precip Events Conditions
12:15 AM 30.2 °F 17.8 °F 28.4 °F 93% 29.77 in 1.2 mi North 19.6 mph 25.3 mph N/A Snow Light Snow
12:35 AM 28.4 °F 15.8 °F 28.4 °F 100% 29.77 in 1.2 mi North 18.4 mph 26.5 mph N/A Snow Light Snow
12:55 AM 28.4 °F 16.2 °F 26.6 °F 93% 29.77 in 2.0 mi NNW 17.3 mph 23.0 mph N/A Snow Light Snow
1:15 AM 28.4 °F 15.8 °F 26.6 °F 93% 29.77 in 1.5 mi North 18.4 mph - N/A Snow Light Snow
1:35 AM 28.4 °F 16.2 °F 26.6 °F 93% 29.76 in 2.0 mi North 17.3 mph - N/A Snow Light Snow
1:55 AM 28.4 °F 15.4 °F 26.6 °F 93% 29.76 in 2.0 mi North 19.6 mph 25.3 mph N/A Snow Light Snow
2:15 AM 28.4 °F 15.8 °F 26.6 °F 93% 29.76 in 3.0 mi NNW 18.4 mph 24.2 mph N/A Snow Light Snow
2:35 AM 28.4 °F 15.4 °F 26.6 °F 93% 29.76 in 3.0 mi NNW 19.6 mph - N/A Snow Light Snow
2:55 AM 28.4 °F 15.4 °F 26.6 °F 93% 29.75 in 5.0 mi NNW 19.6 mph 24.2 mph N/A Snow Light Snow
3:15 AM 28.4 °F 15.4 °F 26.6 °F 93% 29.75 in 5.0 mi NNW 19.6 mph 25.3 mph N/A Snow Light Snow
3:35 AM 28.4 °F 15.4 °F 26.6 °F 93% 29.74 in 4.0 mi NNW 19.6 mph 26.5 mph N/A Snow Light Snow
3:55 AM 26.6 °F 13.8 °F 24.8 °F 93% 29.74 in 3.0 mi NNW 17.3 mph 24.2 mph N/A Snow Light Snow
4:15 AM 26.6 °F 13.4 °F 24.8 °F 93% 29.73 in 2.0 mi NNW 18.4 mph 25.3 mph N/A Snow Light Snow
4:35 AM 26.6 °F 13.8 °F 24.8 °F 93% 29.73 in 7.0 mi NNW 17.3 mph 21.9 mph N/A   Overcast
4:55 AM 26.6 °F 13.4 °F 24.8 °F 93% 29.73 in 2.0 mi NNW 18.4 mph 24.2 mph N/A Snow Light Snow
5:15 AM 26.6 °F 12.7 °F 24.8 °F 93% 29.73 in 3.0 mi NNW 20.7 mph 25.3 mph N/A Snow Light Snow
5:35 AM 26.6 °F 13.4 °F 23.0 °F 86% 29.73 in 7.0 mi NNW 18.4 mph 24.2 mph N/A   Overcast
5:55 AM 26.6 °F 13.4 °F 23.0 °F 86% 29.73 in 10.0 mi NNW 18.4 mph 23.0 mph N/A   Overcast
6:15 AM 26.6 °F 13.8 °F 23.0 °F 86% 29.74 in 10.0 mi NNW 17.3 mph 24.2 mph N/A   Overcast
6:35 AM 26.6 °F 13.1 °F 23.0 °F 86% 29.74 in 10.0 mi NNW 19.6 mph 24.2 mph N/A   Overcast
6:55 AM 26.6 °F 13.4 °F 23.0 °F 86% 29.74 in 10.0 mi NNW 18.4 mph - N/A   Overcast
7:15 AM 26.6 °F 13.1 °F 23.0 °F 86% 29.74 in 10.0 mi NNW 19.6 mph 23.0 mph N/A   Overcast
7:35 AM 26.6 °F 13.4 °F 23.0 °F 86% 29.75 in 10.0 mi NNW 18.4 mph 25.3 mph N/A   Overcast
7:55 AM 26.6 °F 13.8 °F 23.0 °F 86% 29.75 in 10.0 mi NNW 17.3 mph 25.3 mph N/A   Overcast
8:15 AM 26.6 °F 13.8 °F 23.0 °F 86% 29.75 in 10.0 mi NNW 17.3 mph 21.9 mph N/A   Overcast
8:35 AM 26.6 °F 15.2 °F 23.0 °F 86% 29.76 in 10.0 mi NNW 13.8 mph 18.4 mph N/A   Overcast
8:55 AM 24.8 °F 12.4 °F 23.0 °F 93% 29.76 in 10.0 mi NW 15.0 mph - N/A   Overcast
9:15 AM 24.8 °F 12.4 °F 21.2 °F 86% 29.76 in 10.0 mi NW 15.0 mph - N/A   Overcast
9:35 AM 24.8 °F 10.7 °F 21.2 °F 86% 29.77 in 10.0 mi NNW 19.6 mph 24.2 mph N/A   Overcast
9:55 AM 24.8 °F 11.5 °F 21.2 °F 86% 29.77 in 10.0 mi NW 17.3 mph - N/A   Overcast
10:15 AM 24.8 °F 12.9 °F 21.2 °F 86% 29.77 in 10.0 mi NNW 13.8 mph 20.7 mph N/A   Overcast
10:35 AM 24.8 °F 11.5 °F 21.2 °F 86% 29.76 in 7.0 mi NNW 17.3 mph 24.2 mph N/A   Overcast
10:55 AM 26.6 °F 13.4 °F 21.2 °F 80% 29.76 in 10.0 mi NNW 18.4 mph 25.3 mph N/A   Overcast
11:15 AM 26.6 °F 12.4 °F 21.2 °F 80% 29.75 in 10.0 mi NW 21.9 mph - N/A   Overcast
11:35 AM 26.6 °F 13.1 °F 21.2 °F 80% 29.74 in 7.0 mi NW 19.6 mph 27.6 mph N/A   Overcast
11:55 AM 26.6 °F 13.1 °F 21.2 °F 80% 29.74 in 10.0 mi NNW 19.6 mph 24.2 mph N/A   Overcast
12:15 PM 26.6 °F 12.4 °F 21.2 °F 80% 29.74 in 5.0 mi NNW 21.9 mph 27.6 mph N/A   Overcast
12:35 PM 26.6 °F 13.1 °F 21.2 °F 80% 29.74 in 10.0 mi NW 19.6 mph 23.0 mph N/A   Overcast
12:55 PM 26.6 °F 12.4 °F 21.2 °F 80% 29.74 in 7.0 mi NW 21.9 mph 27.6 mph N/A   Overcast
1:15 PM 26.6 °F 12.0 °F 21.2 °F 80% 29.74 in 5.0 mi NNW 23.0 mph 27.6 mph N/A   Overcast
1:35 PM 26.6 °F 12.7 °F 21.2 °F 80% 29.74 in 7.0 mi NW 20.7 mph 26.5 mph N/A   Overcast
1:55 PM 26.6 °F 12.7 °F 21.2 °F 80% 29.74 in 5.0 mi NW 20.7 mph 26.5 mph N/A   Haze
2:15 PM 26.6 °F 14.7 °F 21.2 °F 80% 29.74 in 5.0 mi NW 15.0 mph - N/A   Haze
2:35 PM 26.6 °F 13.8 °F 21.2 °F 80% 29.74 in 10.0 mi NW 17.3 mph 23.0 mph N/A   Overcast
2:55 PM 26.6 °F 13.8 °F 21.2 °F 80% 29.74 in 10.0 mi NW 17.3 mph 23.0 mph N/A   Overcast
3:15 PM 26.6 °F 14.3 °F 21.2 °F 80% 29.75 in 10.0 mi NW 16.1 mph 21.9 mph N/A   Mostly Cloudy
3:35 PM 26.6 °F 14.3 °F 21.2 °F 80% 29.75 in 10.0 mi NW 16.1 mph 20.7 mph N/A   Scattered Clouds
3:55 PM 26.6 °F 14.7 °F 19.4 °F 74% 29.75 in 10.0 mi NW 15.0 mph 23.0 mph N/A   Scattered Clouds
4:15 PM 26.6 °F 13.8 °F 19.4 °F 74% 29.76 in 10.0 mi NW 17.3 mph - N/A   Scattered Clouds
4:35 PM 26.6 °F 15.7 °F 19.4 °F 74% 29.77 in 10.0 mi NW 12.7 mph - N/A   Overcast
4:55 PM 26.6 °F 14.7 °F 19.4 °F 74% 29.78 in 10.0 mi NW 15.0 mph 20.7 mph N/A   Overcast
5:15 PM 26.6 °F 14.3 °F 19.4 °F 74% 29.78 in 10.0 mi WNW 16.1 mph 21.9 mph N/A   Overcast
5:35 PM 26.6 °F 16.2 °F 19.4 °F 74% 29.79 in 10.0 mi WNW 11.5 mph - N/A   Mostly Cloudy
6:15 PM 26.6 °F 15.2 °F 19.4 °F 74% 29.79 in 10.0 mi WNW 13.8 mph - N/A   Mostly Cloudy
6:35 PM 26.6 °F 13.8 °F 19.4 °F 74% 29.79 in 10.0 mi WNW 17.3 mph - N/A   Scattered Clouds
6:55 PM 24.8 °F 12.9 °F 17.6 °F 74% 29.80 in 10.0 mi WNW 13.8 mph 20.7 mph N/A   Scattered Clouds
7:15 PM 24.8 °F 14.0 °F 17.6 °F 74% 29.79 in 10.0 mi NW 11.5 mph 16.1 mph N/A   Scattered Clouds
7:35 PM 23.0 °F 11.7 °F 17.6 °F 80% 29.80 in 10.0 mi NW 11.5 mph - N/A   Mostly Cloudy
7:55 PM 23.0 °F 10.6 °F 15.8 °F 74% 29.82 in 10.0 mi NW 13.8 mph 17.3 mph N/A   Mostly Cloudy
8:15 PM 23.0 °F 11.7 °F 15.8 °F 74% 29.83 in 10.0 mi NW 11.5 mph - N/A   Mostly Cloudy
8:35 PM 23.0 °F 13.1 °F 17.6 °F 80% 29.84 in 10.0 mi WNW 9.2 mph - N/A   Overcast
8:55 PM 23.0 °F 13.1 °F 17.6 °F 80% 29.85 in 10.0 mi WNW 9.2 mph - N/A   Mostly Cloudy
9:15 PM 23.0 °F 12.4 °F 17.6 °F 80% 29.85 in 10.0 mi WNW 10.4 mph - N/A   Scattered Clouds
9:35 PM 23.0 °F 12.4 °F 17.6 °F 80% 29.85 in 10.0 mi WNW 10.4 mph - N/A   Mostly Cloudy
9:55 PM 23.0 °F 13.9 °F 17.6 °F 80% 29.85 in 10.0 mi WNW 8.1 mph - N/A   Mostly Cloudy
10:15 PM 23.0 °F 13.1 °F 19.4 °F 86% 29.86 in 10.0 mi WNW 9.2 mph - N/A   Overcast
10:35 PM 24.8 °F 15.3 °F 19.4 °F 80% 29.86 in 10.0 mi WNW 9.2 mph - N/A   Overcast
10:55 PM 24.8 °F 16.1 °F 19.4 °F 80% 29.87 in 10.0 mi WNW 8.1 mph - N/A   Overcast
11:15 PM 24.8 °F 16.1 °F 19.4 °F 80% 29.86 in 10.0 mi WNW 8.1 mph - N/A   Overcast
11:35 PM 26.6 °F 18.2 °F 19.4 °F 74% 29.86 in 10.0 mi WNW 8.1 mph - N/A   Overcast
11:55 PM 26.6 °F 18.2 °F 19.4 °F 74% 29.87 in 10.0 mi WNW 8.1 mph - N/A   Overcast